sat.trackr.live / text

‹ back to catalog

KUIPER-00089

NORAD 64834 · 2025-151U

PAYLOAD ACTIVE UNKNOWN

§ Identity

Operator
Country
US
Launch date
2025-07-16
Launch site
AFETR
Launch vehicle
Mass (kg)
RCS (m²)

External: N2YO · Heavens-Above · Gunter

§ Orbital elements

Epoch: 2026-05-25T04:28:13.784160Z

Period
97.30 min
Inclination
51.9003°
Eccentricity
0.0000642
Mean motion
14.79934679 rev/d
Perigee alt
629.1 km
Apogee alt
630.0 km
Semi-major
7,007.7 km
B*
1.9314e-4
RAAN
307.3266°
Arg perigee
102.5111°
Mean anomaly
257.5923°
Rev number
4,684

§ Raw data

KUIPER-000891 64834U 25151U   26145.18627065  .00001252  00000+0  19314-3 0  99922 64834  51.9003 307.3266 0000642 102.5111 257.5923 14.79934679 46849

JSON: /api/v1/satellites/64834 · /tle

For live sub-satellite position, see the globe view (requires WebGL).

§ Visibility from observer

Set your observer location to see the next 7 days of passes ≥ 10°. The values pass through the URL so the page stays shareable.

No JS? Fill the form by hand. The geolocation button needs JavaScript.